FDX815 KLAX-KMEM

Flight info

Callsign FDX815
Flight time 3h 10m
Altitude 37000
Route DOTSS2 CLEEE PKE HIDAT KA27O NABOB KA27Q KA27S IMMAS KA30Y KF30A IRW LITTR HOBRK4
Aircraft B77L/H-SDE1E2E3FGHIJ2J3J4J5M1RWXY/LB1D1

Departure

Time 2026-05-07 14:46
Airport Los Angeles International Airport (KLAX)

Arrival

Time 2026-05-07 17:57
Airport Memphis International Airport (KMEM)
Time Latitude Longitude Altitude Speed Heading
2026-05-07 14:32 33.93404 -118.38838 125 ft 0 kts 173°
2026-05-07 14:40 33.93413 -118.38839 126 ft 3 kts 169°
2026-05-07 14:40 33.93432 -118.38846 126 ft 3 kts 150°
2026-05-07 14:41 33.93448 -118.38860 125 ft 3 kts 129°
2026-05-07 14:41 33.93458 -118.38880 125 ft 3 kts 106°
2026-05-07 14:41 33.93461 -118.38900 125 ft 2 kts 84°
2026-05-07 14:41 33.93461 -118.38904 125 ft 0 kts 83°
2026-05-07 14:43 33.93461 -118.38903 125 ft 1 kts 83°
2026-05-07 14:44 33.93477 -118.38814 128 ft 12 kts 56°
2026-05-07 14:44 33.93549 -118.38767 125 ft 16 kts 50°
2026-05-07 14:44 33.93577 -118.38630 126 ft 17 kts 82°
2026-05-07 14:44 33.93592 -118.38487 130 ft 17 kts 84°
2026-05-07 14:45 33.93605 -118.38349 127 ft 11 kts 78°
2026-05-07 14:45 33.93617 -118.38315 125 ft 8 kts 59°
2026-05-07 14:45 33.93719 -118.38320 128 ft 19 kts 300°
2026-05-07 14:45 33.93709 -118.38559 126 ft 49 kts 263°
2026-05-07 14:46 33.93631 -118.39310 130 ft 129 kts 263°
2026-05-07 14:46 33.93492 -118.40624 306 ft 172 kts 262°
2026-05-07 14:46 33.93342 -118.42026 1094 ft 175 kts 263°
2026-05-07 14:46 33.93178 -118.43509 1860 ft 178 kts 262°
2026-05-07 14:47 33.93020 -118.45028 2601 ft 184 kts 264°
2026-05-07 14:47 33.92615 -118.46567 2939 ft 213 kts 235°
2026-05-07 14:47 33.91893 -118.47649 3357 ft 223 kts 229°
2026-05-07 14:47 33.93404 -118.38838 125 ft 5 kts 173°
2026-05-07 14:56 33.93398 -118.38828 130 ft 3 kts 119°
2026-05-07 14:56 33.93413 -118.38803 126 ft 5 kts 37°
2026-05-07 14:56 33.93496 -118.38790 127 ft 14 kts 360°
2026-05-07 14:57 33.93563 -118.38720 126 ft 14 kts 72°
2026-05-07 14:57 33.93581 -118.38600 125 ft 13 kts 82°
2026-05-07 14:57 33.93591 -118.38499 130 ft 13 kts 84°
2026-05-07 14:57 33.93601 -118.38393 129 ft 13 kts 83°
2026-05-07 14:58 33.93609 -118.38335 125 ft 0 kts 73°
2026-05-07 14:58 33.93631 -118.38292 125 ft 18 kts 39°
2026-05-07 14:58 33.93723 -118.38330 125 ft 12 kts 293°
2026-05-07 14:58 33.93706 -118.38567 129 ft 58 kts 263°
2026-05-07 14:59 33.93622 -118.39399 125 ft 138 kts 263°
2026-05-07 14:59 33.93485 -118.40747 395 ft 171 kts 263°
2026-05-07 14:59 33.93347 -118.42148 1205 ft 176 kts 263°
2026-05-07 14:59 33.93193 -118.43629 2030 ft 178 kts 263°
2026-05-07 15:00 33.93032 -118.45162 2688 ft 190 kts 262°
2026-05-07 15:00 33.92478 -118.46724 2857 ft 227 kts 230°
2026-05-07 15:00 33.91392 -118.48264 3156 ft 258 kts 232°
2026-05-07 15:00 33.90248 -118.49996 3944 ft 269 kts 232°
2026-05-07 15:01 33.89056 -118.51764 4943 ft 274 kts 231°
2026-05-07 15:01 33.87845 -118.53560 5968 ft 277 kts 231°
2026-05-07 15:01 33.86505 -118.55222 6817 ft 281 kts 212°
2026-05-07 15:01 33.84653 -118.55959 7624 ft 285 kts 180°
2026-05-07 15:02 33.82703 -118.55637 8531 ft 284 kts 165°
2026-05-07 15:02 33.80753 -118.55094 9389 ft 291 kts 165°
2026-05-07 15:02 33.78768 -118.54544 10343 ft 295 kts 165°
2026-05-07 15:02 33.76710 -118.53976 10896 ft 316 kts 165°
2026-05-07 15:03 33.74460 -118.53360 11093 ft 348 kts 165°
2026-05-07 15:03 33.72039 -118.52597 11277 ft 370 kts 156°
2026-05-07 15:03 33.69902 -118.50842 11913 ft 379 kts 131°
2026-05-07 15:03 33.68473 -118.48195 12900 ft 379 kts 110°
2026-05-07 15:04 33.67603 -118.45188 13753 ft 386 kts 106°
2026-05-07 15:04 33.66740 -118.42092 14616 ft 394 kts 107°
2026-05-07 15:04 33.65836 -118.38969 15616 ft 398 kts 107°
2026-05-07 15:04 33.65047 -118.35774 16619 ft 400 kts 100°
2026-05-07 15:05 33.64578 -118.32472 17573 ft 403 kts 94°
2026-05-07 15:05 33.64390 -118.29101 18443 ft 408 kts 88°
2026-05-07 15:05 33.64396 -118.25677 19192 ft 413 kts 87°
2026-05-07 15:05 33.64419 -118.22210 19946 ft 419 kts 86°
2026-05-07 15:06 33.64441 -118.18690 20737 ft 424 kts 87°
2026-05-07 15:06 33.64456 -118.15134 21501 ft 429 kts 87°
2026-05-07 15:06 33.64463 -118.11528 22259 ft 435 kts 87°
2026-05-07 15:06 33.64465 -118.07875 22991 ft 440 kts 87°
2026-05-07 15:07 33.64462 -118.04178 23717 ft 446 kts 87°
2026-05-07 15:07 33.64457 -118.00437 24343 ft 450 kts 87°
2026-05-07 15:07 33.64451 -117.96664 24989 ft 454 kts 87°
2026-05-07 15:07 33.64444 -117.92854 25630 ft 458 kts 87°
2026-05-07 15:08 33.64436 -117.89015 26264 ft 462 kts 87°
2026-05-07 15:08 33.64428 -117.85141 26891 ft 466 kts 87°
2026-05-07 15:08 33.64479 -117.81235 27481 ft 469 kts 84°
2026-05-07 15:08 33.64814 -117.77334 28054 ft 472 kts 78°
2026-05-07 15:09 33.65483 -117.73468 28612 ft 474 kts 74°
2026-05-07 15:09 33.66260 -117.69607 29143 ft 478 kts 74°
2026-05-07 15:09 33.67031 -117.65767 29658 ft 482 kts 74°
2026-05-07 15:09 33.67809 -117.61838 30140 ft 486 kts 74°
2026-05-07 15:10 33.68579 -117.57884 30614 ft 487 kts 74°
2026-05-07 15:10 33.69339 -117.53928 31187 ft 486 kts 74°
2026-05-07 15:10 33.70092 -117.49979 31742 ft 485 kts 74°
2026-05-07 15:10 33.70843 -117.46032 32280 ft 485 kts 73°
2026-05-07 15:11 33.71593 -117.42086 32816 ft 485 kts 73°
2026-05-07 15:11 33.72342 -117.38143 33342 ft 484 kts 73°
2026-05-07 15:11 33.73090 -117.34199 33853 ft 484 kts 73°
2026-05-07 15:11 33.73838 -117.30251 34289 ft 484 kts 73°
2026-05-07 15:12 33.74555 -117.26301 34715 ft 485 kts 76°
2026-05-07 15:12 33.75013 -117.22268 35169 ft 488 kts 81°
2026-05-07 15:12 33.75140 -117.18193 35571 ft 491 kts 87°
2026-05-07 15:12 33.75031 -117.14093 36004 ft 491 kts 88°
2026-05-07 15:13 33.74945 -117.11384 36332 ft 490 kts 88°
2026-05-07 15:13 33.74822 -117.07291 36725 ft 490 kts 88°
2026-05-07 15:13 33.74722 -117.03199 37086 ft 490 kts 87°
2026-05-07 15:13 33.74637 -116.99087 37083 ft 495 kts 87°
2026-05-07 15:14 33.74462 -116.90841 37082 ft 491 kts 87°
2026-05-07 15:14 33.74273 -116.82684 37075 ft 488 kts 88°
2026-05-07 15:15 33.74082 -116.74550 37053 ft 487 kts 87°
2026-05-07 15:15 33.73885 -116.66421 37019 ft 487 kts 88°
2026-05-07 15:16 33.73684 -116.58290 36990 ft 488 kts 88°
2026-05-07 15:16 33.73477 -116.50138 36985 ft 489 kts 88°
2026-05-07 15:17 33.73263 -116.41970 36971 ft 489 kts 88°
2026-05-07 15:17 33.73045 -116.33812 36979 ft 488 kts 88°
2026-05-07 15:18 33.72823 -116.25659 36996 ft 488 kts 88°
2026-05-07 15:18 33.72595 -116.17509 36993 ft 488 kts 88°
2026-05-07 15:19 33.72612 -116.09393 36982 ft 483 kts 80°
2026-05-07 15:19 33.73832 -116.01525 36985 ft 476 kts 69°
2026-05-07 15:20 33.75916 -115.94006 37000 ft 474 kts 67°
2026-05-07 15:20 33.78056 -115.86504 36991 ft 475 kts 67°
2026-05-07 15:21 33.80170 -115.78970 36976 ft 476 kts 68°
2026-05-07 15:21 33.82258 -115.71423 36987 ft 476 kts 68°
2026-05-07 15:22 33.84338 -115.63863 36992 ft 476 kts 68°
2026-05-07 15:22 33.86415 -115.56298 36979 ft 476 kts 68°
2026-05-07 15:23 33.88486 -115.48734 36987 ft 476 kts 68°
2026-05-07 15:23 33.90552 -115.41173 36975 ft 475 kts 68°
2026-05-07 15:24 33.92609 -115.33623 36982 ft 474 kts 68°
2026-05-07 15:24 33.94660 -115.26076 36988 ft 474 kts 68°
2026-05-07 15:25 33.96690 -115.18585 36976 ft 474 kts 69°
2026-05-07 15:25 33.98728 -115.11044 36964 ft 473 kts 69°
2026-05-07 15:26 34.00760 -115.03505 36977 ft 473 kts 69°
2026-05-07 15:26 34.02789 -114.95957 36976 ft 473 kts 69°
2026-05-07 15:27 34.04813 -114.88404 36975 ft 473 kts 69°
2026-05-07 15:27 34.06831 -114.80855 36968 ft 473 kts 69°
2026-05-07 15:28 34.08843 -114.73306 36969 ft 472 kts 69°
2026-05-07 15:28 34.10860 -114.65766 36974 ft 472 kts 69°
2026-05-07 15:29 34.12962 -114.58262 36967 ft 472 kts 68°
2026-05-07 15:29 34.15084 -114.50764 36952 ft 472 kts 68°
2026-05-07 15:30 34.17193 -114.43257 36963 ft 472 kts 68°
2026-05-07 15:30 34.19290 -114.35737 36974 ft 472 kts 69°
2026-05-07 15:31 34.21379 -114.28217 36956 ft 472 kts 69°
2026-05-07 15:31 34.23464 -114.20691 36964 ft 472 kts 69°
2026-05-07 15:32 34.25541 -114.13173 36968 ft 472 kts 69°
2026-05-07 15:32 34.27616 -114.05647 36964 ft 472 kts 69°
2026-05-07 15:33 34.29685 -113.98120 36955 ft 471 kts 69°
2026-05-07 15:33 34.31745 -113.90604 36961 ft 471 kts 69°
2026-05-07 15:34 34.33799 -113.83091 36964 ft 470 kts 69°
2026-05-07 15:34 34.35849 -113.75576 36979 ft 470 kts 69°
2026-05-07 15:35 34.37879 -113.68112 36964 ft 470 kts 69°
2026-05-07 15:35 34.39914 -113.60607 36969 ft 469 kts 69°
2026-05-07 15:36 34.41943 -113.53101 36976 ft 469 kts 69°
2026-05-07 15:36 34.43967 -113.45600 36972 ft 469 kts 70°
2026-05-07 15:37 34.45985 -113.38096 36981 ft 469 kts 70°
2026-05-07 15:37 34.47999 -113.30586 36971 ft 468 kts 70°
2026-05-07 15:38 34.50006 -113.23080 36987 ft 468 kts 70°
2026-05-07 15:38 34.52008 -113.15575 36986 ft 468 kts 70°
2026-05-07 15:39 34.54007 -113.08064 36993 ft 468 kts 70°
2026-05-07 15:39 34.55804 -113.00482 36985 ft 469 kts 78°
2026-05-07 15:40 34.56383 -112.92587 37008 ft 472 kts 88°
2026-05-07 15:40 34.55924 -112.84625 37031 ft 474 kts 92°
2026-05-07 15:41 34.55336 -112.76660 37020 ft 474 kts 93°
2026-05-07 15:41 34.54776 -112.68690 37016 ft 474 kts 92°
2026-05-07 15:42 34.54238 -112.60722 37017 ft 474 kts 92°
2026-05-07 15:42 34.53702 -112.52760 37033 ft 474 kts 92°
2026-05-07 15:43 34.53431 -112.48780 37191 ft 474 kts 92°
2026-05-07 15:43 34.53159 -112.44802 37197 ft 474 kts 92°
2026-05-07 15:43 34.52610 -112.36838 37186 ft 474 kts 93°
2026-05-07 15:44 34.52055 -112.28877 37164 ft 474 kts 93°
2026-05-07 15:44 34.51494 -112.20906 37124 ft 474 kts 93°
2026-05-07 15:45 34.50930 -112.12949 37094 ft 474 kts 93°
2026-05-07 15:45 34.50360 -112.04980 37046 ft 474 kts 93°
2026-05-07 15:46 34.48423 -111.93274 37042 ft 477 kts 105°
2026-05-07 15:47 34.46449 -111.85592 37038 ft 477 kts 105°
2026-05-07 15:47 34.44495 -111.77903 37040 ft 477 kts 105°
2026-05-07 15:48 34.42570 -111.70224 37040 ft 476 kts 105°
2026-05-07 15:48 34.40650 -111.62563 37027 ft 474 kts 105°
2026-05-07 15:49 34.38731 -111.54931 37126 ft 473 kts 105°
2026-05-07 15:49 34.36810 -111.47320 37167 ft 473 kts 105°
2026-05-07 15:50 34.34885 -111.39714 37202 ft 472 kts 105°
2026-05-07 15:50 34.33500 -111.31995 37214 ft 469 kts 92°
2026-05-07 15:51 34.33677 -111.24149 37199 ft 466 kts 80°
2026-05-07 15:51 34.34754 -111.16422 37169 ft 466 kts 79°
2026-05-07 15:52 34.35862 -111.08677 37130 ft 468 kts 79°
2026-05-07 15:52 34.36931 -111.00902 37101 ft 469 kts 79°
2026-05-07 15:53 34.37975 -110.93098 37081 ft 470 kts 79°
2026-05-07 15:53 34.39012 -110.85275 37090 ft 471 kts 79°
2026-05-07 15:54 34.40047 -110.77438 37089 ft 471 kts 80°
2026-05-07 15:54 34.41069 -110.69660 37103 ft 471 kts 80°
2026-05-07 15:55 34.42093 -110.61831 37097 ft 470 kts 80°
2026-05-07 15:55 34.43111 -110.54016 37115 ft 469 kts 80°
2026-05-07 15:56 34.44122 -110.46209 37151 ft 469 kts 80°
2026-05-07 15:56 34.45129 -110.38396 37200 ft 470 kts 80°
2026-05-07 15:57 34.46135 -110.30551 37122 ft 472 kts 80°
2026-05-07 15:57 34.47139 -110.22673 37117 ft 474 kts 80°
2026-05-07 15:58 34.48142 -110.14767 37108 ft 475 kts 81°
2026-05-07 15:58 34.49143 -110.06836 37105 ft 477 kts 81°
2026-05-07 15:59 34.50040 -109.98842 37117 ft 480 kts 86°
2026-05-07 15:59 34.50155 -109.90748 37112 ft 481 kts 90°
2026-05-07 16:00 34.50158 -109.82619 37106 ft 483 kts 90°
2026-05-07 16:00 34.50175 -109.75852 37089 ft 484 kts 90°
2026-05-07 16:01 34.50214 -109.67669 37174 ft 486 kts 90°
2026-05-07 16:01 34.50258 -109.59453 37210 ft 488 kts 90°
2026-05-07 16:02 34.50298 -109.51202 37239 ft 490 kts 90°
2026-05-07 16:02 34.50330 -109.42943 37244 ft 491 kts 90°
2026-05-07 16:03 34.50356 -109.34667 37250 ft 491 kts 90°
2026-05-07 16:03 34.50377 -109.26381 37246 ft 492 kts 90°
2026-05-07 16:04 34.50392 -109.18089 37204 ft 492 kts 90°
2026-05-07 16:04 34.50402 -109.09808 37156 ft 492 kts 91°
2026-05-07 16:05 34.50406 -109.01512 37124 ft 493 kts 91°
2026-05-07 16:05 34.50403 -108.93198 37093 ft 494 kts 91°
2026-05-07 16:06 34.50396 -108.84864 37086 ft 495 kts 91°
2026-05-07 16:06 34.50383 -108.76509 37092 ft 496 kts 91°
2026-05-07 16:07 34.50364 -108.68143 37095 ft 497 kts 91°
2026-05-07 16:07 34.50339 -108.59750 37088 ft 498 kts 91°
2026-05-07 16:08 34.50309 -108.51340 37092 ft 499 kts 92°
2026-05-07 16:08 34.50273 -108.42920 37093 ft 500 kts 92°
2026-05-07 16:09 34.50231 -108.34482 37093 ft 501 kts 92°
2026-05-07 16:09 34.50184 -108.26027 37093 ft 502 kts 92°
2026-05-07 16:10 34.50129 -108.17552 37087 ft 503 kts 92°
2026-05-07 16:10 34.50070 -108.09064 37093 ft 504 kts 92°
2026-05-07 16:11 34.50052 -108.00631 37096 ft 504 kts 89°
2026-05-07 16:11 34.50867 -107.92177 37095 ft 505 kts 82°
2026-05-07 16:12 34.51975 -107.83761 37087 ft 505 kts 82°
2026-05-07 16:12 34.53061 -107.75346 37087 ft 505 kts 83°
2026-05-07 16:13 34.54111 -107.66916 37081 ft 506 kts 83°
2026-05-07 16:13 34.55144 -107.58459 37100 ft 507 kts 83°
2026-05-07 16:14 34.56171 -107.49984 37099 ft 509 kts 83°
2026-05-07 16:14 34.57197 -107.41486 37100 ft 509 kts 83°
2026-05-07 16:15 34.58222 -107.32966 37098 ft 511 kts 83°
2026-05-07 16:15 34.59244 -107.24412 37102 ft 513 kts 83°
2026-05-07 16:16 34.60263 -107.15832 37111 ft 514 kts 83°
2026-05-07 16:16 34.61277 -107.07238 37105 ft 515 kts 83°
2026-05-07 16:17 34.62287 -106.98627 37105 ft 516 kts 83°
2026-05-07 16:17 34.63294 -106.89991 37119 ft 517 kts 84°
2026-05-07 16:17 34.63795 -106.85666 37267 ft 518 kts 84°
2026-05-07 16:18 34.64296 -106.81333 37247 ft 518 kts 84°
2026-05-07 16:18 34.65294 -106.72661 37250 ft 519 kts 84°
2026-05-07 16:19 34.66287 -106.63975 37205 ft 520 kts 84°
2026-05-07 16:19 34.67276 -106.55270 37182 ft 521 kts 84°
2026-05-07 16:20 34.68262 -106.46543 37142 ft 522 kts 84°
2026-05-07 16:20 34.69242 -106.37803 37114 ft 522 kts 84°
2026-05-07 16:21 34.70216 -106.29057 37119 ft 523 kts 84°
2026-05-07 16:21 34.71179 -106.20350 37133 ft 524 kts 84°
2026-05-07 16:22 34.72144 -106.11568 37135 ft 525 kts 84°
2026-05-07 16:22 34.73106 -106.02761 37135 ft 526 kts 84°
2026-05-07 16:23 34.74062 -105.93942 37127 ft 527 kts 84°
2026-05-07 16:23 34.75015 -105.85086 37152 ft 529 kts 84°
2026-05-07 16:24 34.75965 -105.76199 37142 ft 531 kts 84°
2026-05-07 16:24 34.76912 -105.67284 37145 ft 532 kts 84°
2026-05-07 16:25 34.77854 -105.58350 37108 ft 533 kts 85°
2026-05-07 16:25 34.78797 -105.49332 37109 ft 535 kts 85°
2026-05-07 16:26 34.79725 -105.40410 37102 ft 535 kts 85°
2026-05-07 16:26 34.80652 -105.31420 37105 ft 536 kts 85°
2026-05-07 16:27 34.81574 -105.22412 37092 ft 537 kts 85°
2026-05-07 16:27 34.82493 -105.13377 37105 ft 538 kts 85°
2026-05-07 16:28 34.83406 -105.04322 37112 ft 540 kts 85°
2026-05-07 16:28 34.84314 -104.95247 37161 ft 540 kts 85°
2026-05-07 16:29 34.85217 -104.86160 37174 ft 541 kts 85°
2026-05-07 16:29 34.86113 -104.77062 37208 ft 542 kts 85°
2026-05-07 16:30 34.87005 -104.67948 37222 ft 542 kts 85°
2026-05-07 16:30 34.87890 -104.58827 37211 ft 543 kts 85°
2026-05-07 16:31 34.88769 -104.49698 37197 ft 543 kts 85°
2026-05-07 16:31 34.89641 -104.40567 37175 ft 543 kts 85°
2026-05-07 16:32 34.90495 -104.31502 37164 ft 542 kts 86°
2026-05-07 16:32 34.91045 -104.22362 37105 ft 541 kts 90°
2026-05-07 16:33 34.91450 -104.13197 37129 ft 544 kts 90°
2026-05-07 16:33 34.91861 -104.03958 37152 ft 549 kts 90°
2026-05-07 16:34 34.92298 -103.94647 37136 ft 552 kts 90°
2026-05-07 16:34 34.92743 -103.85293 37147 ft 554 kts 90°
2026-05-07 16:35 34.93183 -103.75910 37145 ft 555 kts 90°
2026-05-07 16:35 34.93612 -103.66518 37147 ft 555 kts 90°
2026-05-07 16:36 34.94033 -103.57131 37152 ft 554 kts 90°
2026-05-07 16:36 34.94446 -103.47763 37161 ft 553 kts 90°
2026-05-07 16:37 34.94851 -103.38388 37161 ft 554 kts 90°
2026-05-07 16:37 34.95250 -103.29012 37175 ft 554 kts 90°
2026-05-07 16:38 34.95641 -103.19632 37170 ft 554 kts 90°
2026-05-07 16:38 34.96026 -103.10252 37161 ft 555 kts 91°
2026-05-07 16:39 34.96403 -103.00846 37179 ft 556 kts 91°
2026-05-07 16:39 34.96775 -102.91408 37172 ft 558 kts 91°
2026-05-07 16:40 34.97141 -102.81945 37172 ft 559 kts 91°
2026-05-07 16:40 34.97500 -102.72462 37162 ft 561 kts 91°
2026-05-07 16:41 34.97852 -102.62962 37182 ft 562 kts 91°
2026-05-07 16:41 34.98198 -102.53439 37202 ft 562 kts 91°
2026-05-07 16:42 34.98537 -102.43909 37217 ft 563 kts 91°
2026-05-07 16:42 34.98866 -102.34430 37219 ft 563 kts 91°
2026-05-07 16:43 34.99192 -102.24821 37215 ft 564 kts 91°
2026-05-07 16:43 34.99509 -102.15262 37155 ft 564 kts 91°
2026-05-07 16:44 34.99817 -102.05765 37155 ft 564 kts 91°
2026-05-07 16:44 35.00093 -101.96207 37141 ft 564 kts 92°
2026-05-07 16:45 35.00170 -101.86633 37147 ft 564 kts 94°
2026-05-07 16:45 35.00183 -101.77056 37147 ft 565 kts 94°
2026-05-07 16:46 35.00216 -101.67465 37159 ft 566 kts 93°
2026-05-07 16:46 35.00265 -101.57858 37157 ft 567 kts 93°
2026-05-07 16:47 35.00312 -101.48238 37158 ft 567 kts 94°
2026-05-07 16:47 35.00348 -101.38613 37156 ft 568 kts 94°
2026-05-07 16:48 35.00375 -101.28985 37153 ft 568 kts 94°
2026-05-07 16:48 35.00391 -101.20979 37162 ft 568 kts 94°
2026-05-07 16:49 35.00403 -101.11334 37166 ft 569 kts 94°
2026-05-07 16:49 35.00408 -101.01673 37169 ft 570 kts 94°
2026-05-07 16:50 35.00406 -100.92008 37138 ft 570 kts 94°
2026-05-07 16:50 35.00397 -100.82354 37172 ft 569 kts 94°
2026-05-07 16:51 35.00378 -100.72692 37172 ft 570 kts 94°
2026-05-07 16:51 35.00353 -100.63024 37169 ft 570 kts 94°
2026-05-07 16:52 35.00321 -100.53354 37150 ft 571 kts 94°
2026-05-07 16:52 35.00279 -100.43675 37162 ft 571 kts 94°
2026-05-07 16:53 35.00230 -100.33995 37161 ft 571 kts 94°
2026-05-07 16:53 35.00174 -100.24313 37163 ft 571 kts 94°
2026-05-07 16:54 35.00111 -100.14681 37159 ft 572 kts 94°
2026-05-07 16:54 35.00043 -100.04973 37156 ft 573 kts 94°
2026-05-07 16:55 35.00619 -99.95246 37147 ft 578 kts 82°
2026-05-07 16:55 35.02184 -99.85623 37158 ft 579 kts 79°
2026-05-07 16:56 35.03806 -99.76000 37149 ft 580 kts 80°
2026-05-07 16:56 35.06131 -99.61503 37154 ft 581 kts 81°
2026-05-07 16:57 35.07641 -99.51821 37157 ft 581 kts 81°
2026-05-07 16:57 35.09146 -99.42132 37143 ft 581 kts 81°
2026-05-07 16:58 35.10648 -99.32441 37175 ft 581 kts 81°
2026-05-07 16:58 35.12148 -99.22732 37183 ft 582 kts 81°
2026-05-07 16:59 35.13639 -99.13014 37187 ft 582 kts 81°
2026-05-07 16:59 35.15123 -99.03288 37188 ft 583 kts 81°
2026-05-07 17:00 35.16591 -98.93613 37168 ft 583 kts 81°
2026-05-07 17:00 35.18063 -98.83859 37208 ft 584 kts 81°
2026-05-07 17:01 35.19528 -98.74091 37162 ft 584 kts 81°
2026-05-07 17:01 35.20986 -98.64324 37158 ft 584 kts 81°
2026-05-07 17:02 35.22435 -98.54549 37173 ft 584 kts 81°
2026-05-07 17:02 35.23876 -98.44778 37170 ft 584 kts 81°
2026-05-07 17:03 35.25309 -98.35004 37151 ft 584 kts 81°
2026-05-07 17:03 35.26735 -98.25221 37158 ft 584 kts 81°
2026-05-07 17:04 35.28154 -98.15425 37158 ft 585 kts 81°
2026-05-07 17:04 35.29567 -98.05618 37154 ft 585 kts 81°
2026-05-07 17:05 35.30973 -97.95795 37156 ft 586 kts 81°
2026-05-07 17:05 35.32372 -97.85965 37148 ft 587 kts 81°
2026-05-07 17:06 35.33765 -97.76115 37157 ft 587 kts 81°
2026-05-07 17:06 35.35093 -97.66244 37154 ft 587 kts 85°
2026-05-07 17:07 35.35407 -97.56356 37165 ft 583 kts 96°
2026-05-07 17:07 35.34542 -97.46541 37169 ft 579 kts 103°
2026-05-07 17:08 35.33435 -97.36767 37158 ft 580 kts 103°
2026-05-07 17:08 35.32359 -97.26965 37159 ft 581 kts 102°
2026-05-07 17:09 35.31319 -97.17144 37166 ft 582 kts 102°
2026-05-07 17:09 35.30283 -97.07313 37162 ft 582 kts 102°
2026-05-07 17:10 35.29236 -96.97487 37151 ft 581 kts 103°
2026-05-07 17:10 35.28178 -96.87681 37162 ft 581 kts 103°
2026-05-07 17:11 35.27110 -96.77881 37151 ft 581 kts 103°
2026-05-07 17:11 35.26032 -96.68066 37159 ft 582 kts 103°
2026-05-07 17:12 35.24947 -96.58251 37160 ft 582 kts 103°
2026-05-07 17:12 35.23854 -96.48435 37157 ft 583 kts 103°
2026-05-07 17:13 35.22753 -96.38608 37165 ft 583 kts 103°
2026-05-07 17:13 35.21642 -96.28778 37169 ft 584 kts 103°
2026-05-07 17:14 35.20530 -96.19015 37162 ft 584 kts 103°
2026-05-07 17:14 35.19402 -96.09185 37157 ft 584 kts 103°
2026-05-07 17:15 35.18266 -95.99345 37162 ft 585 kts 103°
2026-05-07 17:15 35.17121 -95.89506 37168 ft 585 kts 103°
2026-05-07 17:16 35.15967 -95.79659 37163 ft 585 kts 103°
2026-05-07 17:16 35.14804 -95.69811 37187 ft 586 kts 103°
2026-05-07 17:17 35.13632 -95.59956 37157 ft 587 kts 103°
2026-05-07 17:17 35.12451 -95.50092 37162 ft 587 kts 103°
2026-05-07 17:18 35.11264 -95.40236 37142 ft 585 kts 104°
2026-05-07 17:18 35.10070 -95.30399 37165 ft 586 kts 104°
2026-05-07 17:19 35.08865 -95.20560 37152 ft 586 kts 104°
2026-05-07 17:19 35.07661 -95.10782 37151 ft 587 kts 104°
2026-05-07 17:20 35.06440 -95.00931 37151 ft 587 kts 104°
2026-05-07 17:20 35.05211 -94.91078 37147 ft 587 kts 104°
2026-05-07 17:21 35.03972 -94.81225 37151 ft 588 kts 104°
2026-05-07 17:21 35.02724 -94.71361 37155 ft 588 kts 104°
2026-05-07 17:22 35.01468 -94.61492 37155 ft 589 kts 104°
2026-05-07 17:22 35.00202 -94.51619 37163 ft 589 kts 104°
2026-05-07 17:23 34.98927 -94.41741 37153 ft 590 kts 104°
2026-05-07 17:23 34.97644 -94.31861 37148 ft 590 kts 104°
2026-05-07 17:24 34.96352 -94.21978 37143 ft 590 kts 104°
2026-05-07 17:24 34.95053 -94.12104 37144 ft 590 kts 104°
2026-05-07 17:25 34.93745 -94.02231 37139 ft 590 kts 104°
2026-05-07 17:25 34.92430 -93.92366 37094 ft 590 kts 104°
2026-05-07 17:26 34.91118 -93.82577 37127 ft 589 kts 104°
2026-05-07 17:26 34.89789 -93.72737 37127 ft 589 kts 104°
2026-05-07 17:27 34.88452 -93.62898 37143 ft 589 kts 104°
2026-05-07 17:27 34.87107 -93.53056 37129 ft 589 kts 104°
2026-05-07 17:28 34.85752 -93.43209 37143 ft 590 kts 104°
2026-05-07 17:28 34.84389 -93.33361 37127 ft 590 kts 105°
2026-05-07 17:29 34.83017 -93.23507 37126 ft 590 kts 105°
2026-05-07 17:29 34.81639 -93.13669 37136 ft 590 kts 105°
2026-05-07 17:30 34.80250 -93.03820 37149 ft 590 kts 105°
2026-05-07 17:30 34.78855 -92.93973 37152 ft 590 kts 105°
2026-05-07 17:31 34.77451 -92.84133 37151 ft 591 kts 105°
2026-05-07 17:31 34.76039 -92.74293 37146 ft 591 kts 105°
2026-05-07 17:32 34.74618 -92.64452 37136 ft 591 kts 105°
2026-05-07 17:32 34.73432 -92.56284 37151 ft 590 kts 105°
2026-05-07 17:33 34.71755 -92.44792 37146 ft 591 kts 105°
2026-05-07 17:33 34.70322 -92.35034 37126 ft 589 kts 105°
2026-05-07 17:34 34.68876 -92.25246 37155 ft 588 kts 105°
2026-05-07 17:34 34.67436 -92.15472 37079 ft 584 kts 104°
2026-05-07 17:35 34.66803 -92.10627 36756 ft 577 kts 103°
2026-05-07 17:35 34.66224 -92.05804 36060 ft 578 kts 103°
2026-05-07 17:35 34.65657 -92.00948 35201 ft 583 kts 103°
2026-05-07 17:35 34.65082 -91.96053 34346 ft 588 kts 103°
2026-05-07 17:36 34.64490 -91.91126 33423 ft 591 kts 104°
2026-05-07 17:36 34.63883 -91.86179 32481 ft 593 kts 103°
2026-05-07 17:36 34.63265 -91.81219 31536 ft 595 kts 103°
2026-05-07 17:36 34.62640 -91.76241 30597 ft 597 kts 103°
2026-05-07 17:37 34.62011 -91.71258 29546 ft 598 kts 103°
2026-05-07 17:37 34.61381 -91.66267 28601 ft 596 kts 103°
2026-05-07 17:37 34.60759 -91.61330 27965 ft 588 kts 102°
2026-05-07 17:37 34.60151 -91.56500 27848 ft 568 kts 103°
2026-05-07 17:38 34.59564 -91.51845 27847 ft 550 kts 103°
2026-05-07 17:38 34.58978 -91.47264 27855 ft 548 kts 103°
2026-05-07 17:38 34.58388 -91.42695 27843 ft 548 kts 103°
2026-05-07 17:38 34.57801 -91.38149 27363 ft 544 kts 103°
2026-05-07 17:39 34.57215 -91.33611 26611 ft 544 kts 103°
2026-05-07 17:39 34.56627 -91.29069 25817 ft 545 kts 103°
2026-05-07 17:39 34.56038 -91.24531 25095 ft 544 kts 103°
2026-05-07 17:39 34.55450 -91.20010 24381 ft 542 kts 102°
2026-05-07 17:40 34.54864 -91.15504 23600 ft 540 kts 102°
2026-05-07 17:40 34.54274 -91.10996 22718 ft 539 kts 102°
2026-05-07 17:40 34.53689 -91.06534 22101 ft 532 kts 102°
2026-05-07 17:40 34.53305 -91.03611 21756 ft 527 kts 102°
2026-05-07 17:41 34.52731 -90.99258 21225 ft 519 kts 102°
2026-05-07 17:41 34.51979 -90.93582 20455 ft 512 kts 102°
2026-05-07 17:41 34.51414 -90.89335 19842 ft 508 kts 102°
2026-05-07 17:41 34.50852 -90.85117 19275 ft 503 kts 102°
2026-05-07 17:42 34.50622 -90.80973 18941 ft 490 kts 85°
2026-05-07 17:42 34.51008 -90.78244 18791 ft 481 kts 73°
2026-05-07 17:42 34.52155 -90.74552 18475 ft 454 kts 58°
2026-05-07 17:42 34.53855 -90.71457 17672 ft 433 kts 44°
2026-05-07 17:43 34.55715 -90.68620 16814 ft 426 kts 45°
2026-05-07 17:43 34.57493 -90.65838 16502 ft 406 kts 45°
2026-05-07 17:43 34.59155 -90.63181 16361 ft 385 kts 45°
2026-05-07 17:43 34.60727 -90.60641 16157 ft 369 kts 45°
2026-05-07 17:44 34.62240 -90.58189 15884 ft 357 kts 45°
2026-05-07 17:44 34.63566 -90.55705 15507 ft 358 kts 62°
2026-05-07 17:44 34.64184 -90.52790 14966 ft 357 kts 85°
2026-05-07 17:44 34.64217 -90.49807 14334 ft 350 kts 92°
2026-05-07 17:45 34.64146 -90.46882 13599 ft 344 kts 88°
2026-05-07 17:45 34.64295 -90.44003 12794 ft 340 kts 83°
2026-05-07 17:45 34.64521 -90.41168 12031 ft 335 kts 83°
2026-05-07 17:45 34.64750 -90.38378 11306 ft 329 kts 82°
2026-05-07 17:46 34.64973 -90.35633 10613 ft 324 kts 82°
2026-05-07 17:46 34.65189 -90.32930 9920 ft 319 kts 82°
2026-05-07 17:46 34.65396 -90.30277 9206 ft 312 kts 82°
2026-05-07 17:46 34.65594 -90.27675 8666 ft 311 kts 82°
2026-05-07 17:47 34.65778 -90.25077 8548 ft 302 kts 83°
2026-05-07 17:47 34.65945 -90.22582 8127 ft 293 kts 83°
2026-05-07 17:47 34.66116 -90.20116 7669 ft 297 kts 83°
2026-05-07 17:47 34.66302 -90.17597 7207 ft 301 kts 82°
2026-05-07 17:48 34.66490 -90.15077 6738 ft 293 kts 82°
2026-05-07 17:48 34.66723 -90.12698 6195 ft 274 kts 72°
2026-05-07 17:48 34.67501 -90.10708 5659 ft 252 kts 52°
2026-05-07 17:48 34.68521 -90.09067 5164 ft 237 kts 47°
2026-05-07 17:49 34.69656 -90.07675 4661 ft 233 kts 37°
2026-05-07 17:49 34.70920 -90.06439 4258 ft 233 kts 36°
2026-05-07 17:49 34.72191 -90.05244 3941 ft 230 kts 36°
2026-05-07 17:49 34.73469 -90.04112 3627 ft 225 kts 31°
2026-05-07 17:50 34.74792 -90.03126 3320 ft 221 kts 30°
2026-05-07 17:50 34.76109 -90.02193 3064 ft 215 kts 29°
2026-05-07 17:50 34.77346 -90.01322 3041 ft 196 kts 29°
2026-05-07 17:50 34.78495 -90.00508 3020 ft 192 kts 29°
2026-05-07 17:51 34.79663 -89.99682 2996 ft 193 kts 29°
2026-05-07 17:51 34.80799 -89.98873 2985 ft 187 kts 29°
2026-05-07 17:51 34.81915 -89.98072 2984 ft 186 kts 29°
2026-05-07 17:51 34.83067 -89.97444 2970 ft 179 kts 10°
2026-05-07 17:52 34.84269 -89.97329 2987 ft 173 kts
2026-05-07 17:52 34.85458 -89.97249 2985 ft 169 kts
2026-05-07 17:52 34.86616 -89.97234 2993 ft 165 kts
2026-05-07 17:52 34.87751 -89.97248 3010 ft 164 kts 360°
2026-05-07 17:53 34.88887 -89.97271 3004 ft 163 kts 359°
2026-05-07 17:53 34.90043 -89.97291 2824 ft 168 kts 360°
2026-05-07 17:53 34.91199 -89.97315 2591 ft 165 kts 360°
2026-05-07 17:53 34.92346 -89.97341 2384 ft 165 kts 360°
2026-05-07 17:54 34.93496 -89.97364 2151 ft 163 kts
2026-05-07 17:54 34.94569 -89.97388 1931 ft 145 kts
2026-05-07 17:54 34.95545 -89.97409 1743 ft 137 kts 360°
2026-05-07 17:54 34.96505 -89.97429 1580 ft 139 kts 359°
2026-05-07 17:55 34.97470 -89.97447 1407 ft 138 kts 359°
2026-05-07 17:55 34.98416 -89.97469 1209 ft 138 kts 359°
2026-05-07 17:55 34.99363 -89.97491 1013 ft 138 kts 358°
2026-05-07 17:55 35.00324 -89.97508 765 ft 135 kts 359°
2026-05-07 17:56 35.01250 -89.97529 577 ft 133 kts 358°
2026-05-07 17:56 35.02140 -89.97543 378 ft 124 kts 357°
2026-05-07 17:56 35.02987 -89.97566 308 ft 113 kts 359°
2026-05-07 17:56 35.03673 -89.97580 309 ft 81 kts 359°
2026-05-07 17:57 35.04121 -89.97590 320 ft 55 kts 359°
2026-05-07 17:57 35.04351 -89.97594 320 ft 40 kts
2026-05-07 17:57 35.04631 -89.97483 321 ft 24 kts 22°
2026-05-07 17:57 35.04793 -89.97468 321 ft 24 kts 359°
2026-05-07 17:58 35.04958 -89.97473 319 ft 24 kts 359°
2026-05-07 17:58 35.05122 -89.97478 322 ft 24 kts 358°
2026-05-07 17:58 35.05286 -89.97482 323 ft 24 kts 358°
2026-05-07 17:58 35.05450 -89.97484 326 ft 24 kts
2026-05-07 17:59 35.05620 -89.97488 319 ft 27 kts 358°
2026-05-07 17:59 35.05823 -89.97486 312 ft 27 kts 354°
2026-05-07 17:59 35.05935 -89.97437 313 ft 17 kts 73°
2026-05-07 17:59 35.05935 -89.97233 308 ft 30 kts 92°
2026-05-07 18:00 35.05930 -89.97002 311 ft 27 kts 93°
2026-05-07 18:00 35.05925 -89.96771 312 ft 27 kts 92°
2026-05-07 18:00 35.05946 -89.96558 318 ft 25 kts 46°
2026-05-07 18:00 35.06046 -89.96415 312 ft 18 kts 90°
2026-05-07 18:01 35.06065 -89.96306 314 ft 11 kts 15°
2026-05-07 18:01 35.06107 -89.96305 310 ft 0 kts